Date String (YYYY-MM-DD hh:mm:ss) UTC,Instrument flags,absolute air pressure of the measurement (hPa),sample flow rate (lpm),inlet stack bypass flow (lpm),air temperature of the measurement (°C),ambient temperature measured by the external sensor (°C),aerosol sample conditioner tube jacket temperature (°C),OPC LED temperature (°C),internal box temperature (°C),relative humidity of the measurement (%),span deviation,mass concentration of particles derived from Lorenz-Mie calculation of OPC scattering (μg/m³),mass concentration of particles derived from Lorenz-Mie calculation of OPC scattering (μg/m³),mass concentration of particles derived from Lorenz-Mie calculation of OPC scattering (μg/m³)
DateTimeUTC,F1_M11,P_M11,Q1_M11,Q2_M11,T1_M11,T2_M11,T3_M11,T4_M11,T5_M11,U1_M11,ZSPAN_M11,X0_M11,X2_M11,X1_M11
2023-11-05 03:00:00,SystemResetWarning,0832.2,5.00,000.00,028.1,027.2,000.0,036.4,029.6,13.5,0000.0,0008.51,0002.58,0001.54
2023-11-05 03:01:00,SystemResetWarning,0832.2,5.00,000.00,028.1,027.2,000.0,036.4,029.6,13.5,0000.0,0008.71,0002.62,0001.54
2023-11-05 03:02:00,SystemResetWarning,0832.0,4.99,000.00,028.1,027.2,000.0,036.4,029.6,13.4,0000.0,0008.78,0002.64,0001.55
2023-11-05 03:03:00,SystemResetWarning,0832.0,5.00,000.00,028.1,027.2,000.0,036.4,029.6,13.5,0000.0,0008.77,0002.60,0001.56
2023-11-05 03:04:00,SystemResetWarning,0832.0,5.00,000.00,028.1,027.2,000.0,036.4,029.6,13.5,0000.0,0008.74,0002.59,0001.57
2023-11-05 03:05:00,SystemResetWarning,0831.9,5.00,000.00,028.1,027.2,000.0,036.4,029.6,13.5,0000.0,0009.12,0002.55,0001.56
2023-11-05 03:06:00,SystemResetWarning,0831.9,4.99,000.00,028.2,027.2,000.0,036.4,029.6,13.5,0000.0,0008.76,0002.49,0001.55
2023-11-05 03:07:00,SystemResetWarning,0831.9,5.01,000.00,028.2,027.2,000.0,036.5,029.6,13.5,0000.0,0008.78,0002.46,0001.56
2023-11-05 03:08:00,SystemResetWarning,0831.9,5.00,000.00,028.2,027.2,000.0,036.5,029.6,13.5,0000.0,0008.64,0002.51,0001.57
2023-11-05 03:09:00,SystemResetWarning,0832.0,5.00,000.00,028.2,027.2,000.0,036.5,029.6,13.5,0000.0,0007.93,0002.47,0001.58
2023-11-05 03:10:00,SystemResetWarning,0832.0,5.01,000.00,028.2,027.2,000.0,036.5,029.6,13.5,0000.0,0007.87,0002.48,0001.58
2023-11-05 03:11:00,SystemResetWarning,0832.0,5.00,000.00,028.2,027.2,000.0,036.5,029.6,13.5,0000.0,0007.68,0002.46,0001.57
2023-11-05 03:12:00,SystemResetWarning,0832.0,4.99,000.00,028.2,027.2,000.0,036.5,029.6,13.5,0000.0,0006.83,0002.40,0001.56
2023-11-05 03:13:00,SystemResetWarning,0832.0,5.00,000.00,028.2,027.2,000.0,036.5,029.6,13.5,0000.0,0006.23,0002.29,0001.54
2023-11-05 03:14:00,SystemResetWarning,0831.9,4.99,000.00,028.2,027.2,000.0,036.5,029.6,13.4,0000.0,0006.41,0002.32,0001.55
2023-11-05 03:15:00,SystemResetWarning,0831.9,5.00,000.00,028.2,027.2,000.0,036.5,029.6,13.4,0000.0,0007.28,0002.40,0001.55
2023-11-05 03:16:00,SystemResetWarning,0831.9,5.00,000.00,028.2,027.2,000.0,036.5,029.6,13.3,0000.0,0007.27,0002.45,0001.55
2023-11-05 03:17:00,SystemResetWarning,0831.9,5.01,000.00,028.2,027.2,000.0,036.5,029.7,13.3,0000.0,0008.39,0002.44,0001.54
2023-11-05 03:18:00,SystemResetWarning,0831.9,5.01,000.00,028.2,027.2,000.0,036.5,029.6,13.3,0000.0,0008.11,0002.47,0001.53
2023-11-05 03:19:00,SystemResetWarning,0831.9,5.00,000.00,028.2,027.2,000.0,036.5,029.6,13.3,0000.0,0008.39,0002.43,0001.53
2023-11-05 03:20:00,SystemResetWarning,0831.9,4.98,000.00,028.2,027.1,000.0,036.5,029.6,13.3,0000.0,0009.12,0002.41,0001.52
2023-11-05 03:21:00,SystemResetWarning,0831.9,4.99,000.00,028.2,027.1,000.0,036.6,029.6,13.3,0000.0,0009.41,0002.37,0001.51
2023-11-05 03:22:00,SystemResetWarning,0832.2,5.01,000.00,028.2,027.1,000.0,036.6,029.6,13.2,0000.0,0009.25,0002.33,0001.51
2023-11-05 03:23:00,SystemResetWarning,0832.1,5.01,000.00,028.2,027.1,000.0,036.6,029.6,13.2,0000.0,0009.20,0002.31,0001.50
2023-11-05 03:24:00,SystemResetWarning,0831.9,5.00,000.00,028.2,027.1,000.0,036.6,029.6,13.2,0000.0,0009.34,0002.38,0001.51
2023-11-05 03:25:00,SystemResetWarning,0831.8,4.99,000.00,028.2,027.1,000.0,036.6,029.6,13.2,0000.0,0009.53,0002.43,0001.50
2023-11-05 03:26:00,SystemResetWarning,0831.9,4.99,000.00,028.2,027.1,000.0,036.6,029.6,13.2,0000.0,0009.51,0002.41,0001.50
2023-11-05 03:27:00,SystemResetWarning,0831.9,5.00,000.00,028.2,027.2,000.0,036.6,029.6,13.2,0000.0,0009.22,0002.39,0001.51
2023-11-05 03:28:00,SystemResetWarning,0831.9,5.00,000.00,028.2,027.2,000.0,036.6,029.6,13.1,0000.0,0008.72,0002.38,0001.51
2023-11-05 03:29:00,SystemResetWarning,0831.9,5.00,000.00,028.2,027.2,000.0,036.6,029.6,13.2,0000.0,0008.64,0002.38,0001.51
2023-11-05 03:30:00,SystemResetWarning,0831.9,5.01,000.00,028.2,027.2,000.0,036.6,029.6,13.2,0000.0,0008.33,0002.35,0001.51
2023-11-05 03:31:00,SystemResetWarning,0831.9,5.01,000.00,028.2,027.2,000.0,036.6,029.6,13.1,0000.0,0007.58,0002.37,0001.51
2023-11-05 03:32:00,SystemResetWarning,0831.9,5.00,000.00,028.2,027.2,000.0,036.6,029.6,13.1,0000.0,0007.80,0002.39,0001.51
2023-11-05 03:33:00,SystemResetWarning,0831.9,5.00,000.00,028.2,027.2,000.0,036.6,029.6,13.1,0000.0,0008.49,0002.48,0001.52
2023-11-05 03:34:00,SystemResetWarning,0831.8,5.00,000.00,028.2,027.2,000.0,036.6,029.7,13.1,0000.0,0009.47,0002.55,0001.54
2023-11-05 03:35:00,SystemResetWarning,0831.8,4.99,000.00,028.2,027.2,000.0,036.6,029.6,13.1,0000.0,0009.72,0002.55,0001.54
2023-11-05 03:36:00,SystemResetWarning,0832.1,5.00,000.00,028.2,027.1,000.0,036.6,029.6,13.1,0000.0,0009.65,0002.47,0001.52
2023-11-05 03:37:00,SystemResetWarning,0832.0,5.00,000.00,028.2,027.2,000.0,036.6,029.6,13.1,0000.0,0009.43,0002.48,0001.51
2023-11-05 03:38:00,SystemResetWarning,0831.7,5.00,000.00,028.2,027.2,000.0,036.6,029.6,13.1,0000.0,0009.66,0002.47,0001.50
2023-11-05 03:39:00,SystemResetWarning,0832.0,4.99,000.00,028.2,027.2,000.0,036.6,029.6,13.1,0000.0,0009.39,0002.50,0001.48
2023-11-05 03:40:00,SystemResetWarning,0832.1,4.99,000.00,028.3,027.2,000.0,036.6,029.7,13.1,0000.0,0009.23,0002.47,0001.48
2023-11-05 03:41:00,SystemResetWarning,0831.9,5.01,000.00,028.3,027.2,000.0,036.6,029.7,13.1,0000.0,0009.24,0002.46,0001.48
2023-11-05 03:42:00,SystemResetWarning,0831.7,5.01,000.00,028.3,027.1,000.0,036.6,029.6,13.1,0000.0,0009.29,0002.45,0001.47
2023-11-05 03:43:00,SystemResetWarning,0832.2,4.99,000.00,028.2,027.1,000.0,036.6,029.6,13.1,0000.0,0008.56,0002.42,0001.47
2023-11-05 03:44:00,SystemResetWarning,0831.7,4.99,000.00,028.2,027.1,000.0,036.6,029.6,13.1,0000.0,0008.21,0002.36,0001.46
2023-11-05 03:45:00,SystemResetWarning,0831.7,4.99,000.00,028.2,027.1,000.0,036.6,029.5,13.0,0000.0,0007.40,0002.35,0001.46
2023-11-05 03:46:00,SystemResetWarning,0831.6,5.00,000.00,028.2,027.1,000.0,036.6,029.5,12.9,0000.0,0007.40,0002.39,0001.45
2023-11-05 03:47:00,SystemResetWarning,0831.6,5.01,000.00,028.2,027.1,000.0,036.6,029.6,12.9,0000.0,0007.87,0002.38,0001.45
2023-11-05 03:48:00,SystemResetWarning,0831.5,5.01,000.00,028.2,027.2,000.0,036.6,029.6,12.9,0000.0,0007.69,0002.32,0001.43
2023-11-05 03:49:00,SystemResetWarning,0831.5,5.01,000.00,028.2,027.2,000.0,036.6,029.7,12.9,0000.0,0007.68,0002.25,0001.41
2023-11-05 03:50:00,SystemResetWarning,0831.6,4.98,000.00,028.3,027.3,000.0,036.6,029.7,13.0,0000.0,0007.70,0002.32,0001.43
2023-11-05 03:51:00,SystemResetWarning,0831.6,4.99,000.00,028.3,027.3,000.0,036.6,029.7,12.9,0000.0,0007.65,0002.32,0001.42
2023-11-05 03:52:00,SystemResetWarning,0831.7,5.01,000.00,028.3,027.3,000.0,036.6,029.7,12.9,0000.0,0007.73,0002.35,0001.42
2023-11-05 03:53:00,SystemResetWarning,0831.7,5.01,000.00,028.3,027.3,000.0,036.6,029.7,12.9,0000.0,0007.76,0002.36,0001.42
2023-11-05 03:54:00,SystemResetWarning,0831.7,5.01,000.00,028.3,027.3,000.0,036.6,029.7,12.9,0000.0,0007.78,0002.42,0001.43
2023-11-05 03:55:00,SystemResetWarning,0831.6,4.99,000.00,028.3,027.3,000.0,036.7,029.7,12.9,0000.0,0007.58,0002.40,0001.43
2023-11-05 03:56:00,SystemResetWarning,0831.6,4.99,000.00,028.3,027.3,000.0,036.7,029.7,12.9,0000.0,0007.39,0002.39,0001.41
2023-11-05 03:57:00,SystemResetWarning,0831.6,5.00,000.00,028.3,027.2,000.0,036.7,029.7,12.8,0000.0,0007.70,0002.31,0001.41
2023-11-05 03:58:00,SystemResetWarning,0831.6,5.00,000.00,028.3,027.2,000.0,036.7,029.7,12.8,0000.0,0007.67,0002.36,0001.42
2023-11-05 03:59:00,SystemResetWarning,0831.6,5.00,000.00,028.3,027.2,000.0,036.7,029.7,12.8,0000.0,0007.92,0002.44,0001.44
